Time,TemperatureF,DewpointF,PressureIn,WindDirection,WindDirectionDegrees,WindSpeedMPH,WindSpeedGustMPH,Humidity,HourlyPrecipIn,Conditions,Clouds,dailyrainin,SoftwareType,DateUTC
2013-03-26 00:03:00,22.7,11.3,30.44,SSE,152,0.0,0.0,61,0.00,,---,0.00,VWS V14.00,2013-03-26 06:03:00,
2013-03-26 00:09:00,22.6,11.6,30.42,SSE,152,0.0,1.0,62,0.00,,---,0.00,VWS V14.00,2013-03-26 06:09:00,
2013-03-26 00:14:00,22.5,11.5,30.42,SSE,155,0.0,3.0,62,0.00,,---,0.00,VWS V14.00,2013-03-26 06:14:00,
2013-03-26 00:19:00,22.5,11.5,30.42,SSE,155,0.0,0.0,62,0.00,,---,0.00,VWS V14.00,2013-03-26 06:19:00,
2013-03-26 00:25:00,22.4,11.7,30.42,SSE,155,0.0,0.0,63,0.00,,---,0.00,VWS V14.00,2013-03-26 06:25:00,
2013-03-26 00:30:00,22.3,11.6,30.42,SSE,155,0.0,0.0,63,0.00,,---,0.00,VWS V14.00,2013-03-26 06:30:00,
2013-03-26 00:35:00,22.2,11.5,30.41,SSE,155,0.0,0.0,63,0.00,,---,0.00,VWS V14.00,2013-03-26 06:35:00,
2013-03-26 00:40:00,22.1,11.8,30.41,SSE,155,0.0,0.0,64,0.00,,---,0.00,VWS V14.00,2013-03-26 06:40:00,
2013-03-26 00:45:00,22.0,11.7,30.41,SSE,155,0.0,0.0,64,0.00,,---,0.00,VWS V14.00,2013-03-26 06:45:00,
2013-03-26 00:50:00,21.9,11.6,30.41,SSE,155,0.0,0.0,64,0.00,,---,0.00,VWS V14.00,2013-03-26 06:50:00,
2013-03-26 00:55:00,21.8,11.5,30.40,SSE,155,0.0,1.0,64,0.00,,---,0.00,VWS V14.00,2013-03-26 06:55:00,
2013-03-26 01:00:00,21.8,11.5,30.40,SSE,155,0.0,0.0,64,0.00,,---,0.00,VWS V14.00,2013-03-26 07:00:00,
2013-03-26 01:05:00,21.7,11.4,30.40,SSE,155,0.0,0.0,64,0.00,,---,0.00,VWS V14.00,2013-03-26 07:05:00,
2013-03-26 01:10:00,21.6,11.3,30.40,SSE,155,0.0,0.0,64,0.00,,---,0.00,VWS V14.00,2013-03-26 07:10:00,
2013-03-26 01:15:00,21.4,11.5,30.40,SSE,155,0.0,0.0,65,0.00,,---,0.00,VWS V14.00,2013-03-26 07:15:00,
2013-03-26 01:20:00,21.3,11.4,30.40,SSE,155,0.0,0.0,65,0.00,,---,0.00,VWS V14.00,2013-03-26 07:20:00,
2013-03-26 01:25:00,21.1,11.2,30.40,SSE,155,0.0,0.0,65,0.00,,---,0.00,VWS V14.00,2013-03-26 07:25:00,
2013-03-26 01:30:00,20.9,11.0,30.39,SSE,155,0.0,0.0,65,0.00,,---,0.00,VWS V14.00,2013-03-26 07:30:00,
2013-03-26 01:35:00,20.8,10.9,30.40,SSE,155,0.0,0.0,65,0.00,,---,0.00,VWS V14.00,2013-03-26 07:35:00,
2013-03-26 01:40:00,20.6,10.7,30.40,SSE,155,0.0,0.0,65,0.00,,---,0.00,VWS V14.00,2013-03-26 07:40:00,
2013-03-26 01:45:00,20.4,10.5,30.39,SSE,155,0.0,0.0,65,0.00,,---,0.00,VWS V14.00,2013-03-26 07:45:00,
2013-03-26 01:50:00,20.3,10.4,30.41,SSE,155,0.0,0.0,65,0.00,,---,0.00,VWS V14.00,2013-03-26 07:50:00,
2013-03-26 01:55:00,20.1,10.6,30.40,SSE,155,0.0,0.0,66,0.00,,---,0.00,VWS V14.00,2013-03-26 07:55:00,
2013-03-26 02:00:00,20.0,10.5,30.40,SSE,155,0.0,0.0,66,0.00,,---,0.00,VWS V14.00,2013-03-26 08:00:00,
2013-03-26 02:05:00,19.8,10.3,30.37,SSE,155,0.0,1.0,66,0.00,,---,0.00,VWS V14.00,2013-03-26 08:05:00,
2013-03-26 02:10:00,19.7,10.5,30.37,SSE,155,0.0,0.0,67,0.00,,---,0.00,VWS V14.00,2013-03-26 08:10:00,
2013-03-26 02:15:00,19.7,10.5,30.37,SSE,155,0.0,0.0,67,0.00,,---,0.00,VWS V14.00,2013-03-26 08:15:00,
2013-03-26 02:20:00,19.5,10.3,30.36,SSE,155,0.0,0.0,67,0.00,,---,0.00,VWS V14.00,2013-03-26 08:20:00,
2013-03-26 02:25:00,19.4,10.6,30.37,SSE,155,0.0,0.0,68,0.00,,---,0.00,VWS V14.00,2013-03-26 08:25:00,
2013-03-26 02:30:00,19.3,10.5,30.37,SSE,155,0.0,0.0,68,0.00,,---,0.00,VWS V14.00,2013-03-26 08:30:00,
2013-03-26 02:35:00,19.2,10.4,30.37,SSE,155,0.0,0.0,68,0.00,,---,0.00,VWS V14.00,2013-03-26 08:35:00,
2013-03-26 02:40:00,19.0,10.2,30.37,SSE,155,0.0,0.0,68,0.00,,---,0.00,VWS V14.00,2013-03-26 08:40:00,
2013-03-26 02:45:00,18.9,10.1,30.36,SSE,155,0.0,0.0,68,0.00,,---,0.00,VWS V14.00,2013-03-26 08:45:00,
2013-03-26 02:52:00,18.7,9.9,30.36,SSE,155,0.0,0.0,68,0.00,,---,0.00,VWS V14.00,2013-03-26 08:52:00,
2013-03-26 02:57:00,18.6,9.8,30.36,SSE,155,0.0,0.0,68,0.00,,---,0.00,VWS V14.00,2013-03-26 08:57:00,
2013-03-26 03:02:00,18.5,9.7,30.36,SSE,155,0.0,0.0,68,0.00,,---,0.00,VWS V14.00,2013-03-26 09:02:00,
2013-03-26 03:08:00,18.4,9.9,30.34,SSE,155,0.0,0.0,69,0.00,,---,0.00,VWS V14.00,2013-03-26 09:08:00,
2013-03-26 03:13:00,18.3,9.9,30.34,SSE,155,0.0,0.0,69,0.00,,---,0.00,VWS V14.00,2013-03-26 09:13:00,
2013-03-26 03:18:00,18.2,9.8,30.34,SSE,155,0.0,0.0,69,0.00,,---,0.00,VWS V14.00,2013-03-26 09:18:00,
2013-03-26 03:23:00,18.1,9.7,30.34,SSE,155,0.0,0.0,69,0.00,,---,0.00,VWS V14.00,2013-03-26 09:23:00,
2013-03-26 03:28:00,18.0,9.6,30.34,SSE,155,0.0,0.0,69,0.00,,---,0.00,VWS V14.00,2013-03-26 09:28:00,
2013-03-26 03:33:00,18.0,9.9,30.34,SSE,155,0.0,0.0,70,0.00,,---,0.00,VWS V14.00,2013-03-26 09:33:00,
2013-03-26 03:38:00,18.0,9.9,30.34,SSE,155,0.0,0.0,70,0.00,,---,0.00,VWS V14.00,2013-03-26 09:38:00,
2013-03-26 03:43:00,18.0,10.2,30.34,SSE,155,0.0,0.0,71,0.00,,---,0.00,VWS V14.00,2013-03-26 09:43:00,
2013-03-26 03:48:00,18.0,10.2,30.34,SSE,155,0.0,0.0,71,0.00,,---,0.00,VWS V14.00,2013-03-26 09:48:00,
2013-03-26 03:53:00,17.9,10.1,30.34,SSE,155,0.0,0.0,71,0.00,,---,0.00,VWS V14.00,2013-03-26 09:53:00,
2013-03-26 03:58:00,17.9,10.4,30.34,SSE,155,0.0,0.0,72,0.00,,---,0.00,VWS V14.00,2013-03-26 09:58:00,
2013-03-26 04:03:00,18.0,10.5,30.33,SSE,155,0.0,0.0,72,0.00,,---,0.00,VWS V14.00,2013-03-26 10:03:00,
2013-03-26 04:08:00,18.0,10.5,30.33,SSE,155,0.0,0.0,72,0.00,,---,0.00,VWS V14.00,2013-03-26 10:08:00,
2013-03-26 04:13:00,18.1,10.9,30.33,SSE,155,0.0,0.0,73,0.00,,---,0.00,VWS V14.00,2013-03-26 10:13:00,
2013-03-26 04:18:00,18.2,11.0,30.33,SSE,155,0.0,0.0,73,0.00,,---,0.00,VWS V14.00,2013-03-26 10:18:00,
2013-03-26 04:24:00,18.4,11.5,30.32,SSE,155,0.0,0.0,74,0.00,,---,0.00,VWS V14.00,2013-03-26 10:24:00,
2013-03-26 04:29:00,18.3,11.1,30.33,SSE,155,0.0,0.0,73,0.00,,---,0.00,VWS V14.00,2013-03-26 10:29:00,
2013-03-26 04:34:00,18.2,11.3,30.32,SSE,155,0.0,0.0,74,0.00,,---,0.00,VWS V14.00,2013-03-26 10:34:00,
2013-03-26 04:39:00,18.3,11.4,30.32,SSE,155,0.0,0.0,74,0.00,,---,0.00,VWS V14.00,2013-03-26 10:39:00,
2013-03-26 04:44:00,18.3,11.4,30.32,SSE,155,0.0,0.0,74,0.00,,---,0.00,VWS V14.00,2013-03-26 10:44:00,
2013-03-26 04:49:00,18.2,11.3,30.32,SSE,155,0.0,0.0,74,0.00,,---,0.00,VWS V14.00,2013-03-26 10:49:00,
2013-03-26 04:54:00,18.2,11.6,30.32,SSE,155,0.0,0.0,75,0.00,,---,0.00,VWS V14.00,2013-03-26 10:54:00,
2013-03-26 04:59:00,18.1,11.2,30.32,SSE,155,0.0,0.0,74,0.00,,---,0.00,VWS V14.00,2013-03-26 10:59:00,
2013-03-26 05:04:00,18.0,11.1,30.34,SSE,155,0.0,0.0,74,0.00,,---,0.00,VWS V14.00,2013-03-26 11:04:00,
2013-03-26 05:10:00,18.0,11.4,30.34,SSE,155,0.0,0.0,75,0.00,,---,0.00,VWS V14.00,2013-03-26 11:10:00,
2013-03-26 05:15:00,18.1,11.5,30.34,SSE,155,0.0,0.0,75,0.00,,---,0.00,VWS V14.00,2013-03-26 11:15:00,
2013-03-26 05:20:00,18.0,11.4,30.34,SSE,155,0.0,0.0,75,0.00,,---,0.00,VWS V14.00,2013-03-26 11:20:00,
2013-03-26 05:27:00,17.9,11.3,30.34,SSE,155,0.0,0.0,75,0.00,,---,0.00,VWS V14.00,2013-03-26 11:27:00,
2013-03-26 05:32:00,17.8,11.2,30.34,SSE,155,0.0,0.0,75,0.00,,---,0.00,VWS V14.00,2013-03-26 11:32:00,
2013-03-26 05:37:00,17.8,11.5,30.34,SSE,155,0.0,0.0,76,0.00,,---,0.00,VWS V14.00,2013-03-26 11:37:00,
2013-03-26 05:42:00,17.8,11.5,30.33,SSE,155,0.0,0.0,76,0.00,,---,0.00,VWS V14.00,2013-03-26 11:42:00,
2013-03-26 05:47:00,17.8,11.5,30.33,SSE,155,0.0,0.0,76,0.00,,---,0.00,VWS V14.00,2013-03-26 11:47:00,
2013-03-26 05:52:00,17.8,11.5,30.33,SSE,155,0.0,0.0,76,0.00,,---,0.00,VWS V14.00,2013-03-26 11:52:00,
2013-03-26 05:57:00,18.0,12.0,30.33,SSE,155,0.0,0.0,77,0.00,,---,0.00,VWS V14.00,2013-03-26 11:57:00,
2013-03-26 06:02:00,18.0,11.7,30.33,SSE,155,0.0,0.0,76,0.00,,---,0.00,VWS V14.00,2013-03-26 12:02:00,
2013-03-26 06:08:00,18.0,11.7,30.34,SSE,155,0.0,0.0,76,0.00,,---,0.00,VWS V14.00,2013-03-26 12:08:00,
2013-03-26 06:13:00,18.1,12.1,30.34,SSE,155,0.0,0.0,77,0.00,,---,0.00,VWS V14.00,2013-03-26 12:13:00,
2013-03-26 06:18:00,18.1,12.1,30.35,SSE,155,0.0,0.0,77,0.00,,---,0.00,VWS V14.00,2013-03-26 12:18:00,
2013-03-26 06:23:00,18.1,12.1,30.34,SSE,155,0.0,0.0,77,0.00,,---,0.00,VWS V14.00,2013-03-26 12:23:00,
2013-03-26 06:28:00,18.1,12.1,30.35,SSE,155,0.0,0.0,77,0.00,,---,0.00,VWS V14.00,2013-03-26 12:28:00,
2013-03-26 06:33:00,18.1,12.1,30.35,SSE,155,0.0,0.0,77,0.00,,---,0.00,VWS V14.00,2013-03-26 12:33:00,
2013-03-26 06:38:00,18.1,12.1,30.35,SSE,155,0.0,0.0,77,0.00,,---,0.00,VWS V14.00,2013-03-26 12:38:00,
2013-03-26 06:43:00,18.1,12.1,30.34,SSE,155,0.0,0.0,77,0.00,,---,0.00,VWS V14.00,2013-03-26 12:43:00,
2013-03-26 06:48:00,18.1,12.1,30.35,SSE,155,0.0,0.0,77,0.00,,---,0.00,VWS V14.00,2013-03-26 12:48:00,
2013-03-26 06:54:00,18.1,12.1,30.35,SSE,155,0.0,0.0,77,0.00,,---,0.00,VWS V14.00,2013-03-26 12:54:00,
2013-03-26 06:59:00,18.1,12.1,30.35,SSE,155,0.0,0.0,77,0.00,,---,0.00,VWS V14.00,2013-03-26 12:59:00,
2013-03-26 07:04:00,18.1,12.1,30.35,SSE,155,0.0,0.0,77,0.00,,---,0.00,VWS V14.00,2013-03-26 13:04:00,
2013-03-26 07:09:00,18.2,12.5,30.35,SSE,155,0.0,0.0,78,0.00,,---,0.00,VWS V14.00,2013-03-26 13:09:00,
2013-03-26 07:14:00,18.8,13.1,30.35,SSE,155,0.0,0.0,78,0.00,,---,0.00,VWS V14.00,2013-03-26 13:14:00,
2013-03-26 07:19:00,19.2,13.5,30.36,SSE,155,0.0,0.0,78,0.00,,---,0.00,VWS V14.00,2013-03-26 13:19:00,
2013-03-26 07:24:00,19.5,13.8,30.34,SSE,155,0.0,0.0,78,0.00,,---,0.00,VWS V14.00,2013-03-26 13:24:00,
2013-03-26 07:30:00,20.0,14.6,30.35,SSE,155,0.0,0.0,79,0.00,,---,0.00,VWS V14.00,2013-03-26 13:30:00,
2013-03-26 07:35:00,20.7,15.2,30.33,SSE,154,0.0,0.0,79,0.00,,---,0.00,VWS V14.00,2013-03-26 13:35:00,
2013-03-26 07:42:00,22.4,16.6,30.32,SSE,154,0.0,1.0,78,0.00,,---,0.00,VWS V14.00,2013-03-26 13:42:00,
2013-03-26 07:47:00,23.4,16.7,30.32,SSE,153,3.0,3.0,75,0.00,,---,0.00,VWS V14.00,2013-03-26 13:47:00,
2013-03-26 07:53:00,24.3,16.9,30.31,SSE,153,0.0,0.0,73,0.00,,---,0.00,VWS V14.00,2013-03-26 13:53:00,
2013-03-26 07:58:00,25.1,16.7,30.31,SSE,154,1.0,1.0,70,0.00,,---,0.00,VWS V14.00,2013-03-26 13:58:00,
2013-03-26 08:03:00,25.7,17.0,30.31,SSE,154,0.0,0.0,69,0.00,,---,0.00,VWS V14.00,2013-03-26 14:03:00,
2013-03-26 08:09:00,26.3,17.2,30.30,SSE,154,0.0,0.0,68,0.00,,---,0.00,VWS V14.00,2013-03-26 14:09:00,
2013-03-26 08:14:00,26.9,17.1,30.29,SSE,153,0.0,0.0,66,0.00,,---,0.00,VWS V14.00,2013-03-26 14:14:00,
2013-03-26 08:20:00,27.4,16.5,30.29,SSE,154,0.0,0.0,63,0.00,,---,0.00,VWS V14.00,2013-03-26 14:20:00,
2013-03-26 08:26:00,27.7,16.8,30.28,SSE,154,0.0,0.0,63,0.00,,---,0.00,VWS V14.00,2013-03-26 14:26:00,
2013-03-26 08:31:00,27.9,16.2,30.28,SSE,154,0.0,0.0,61,0.00,,---,0.00,VWS V14.00,2013-03-26 14:31:00,
2013-03-26 08:36:00,28.5,17.1,30.27,SSE,153,1.0,2.0,62,0.00,,---,0.00,VWS V14.00,2013-03-26 14:36:00,
2013-03-26 08:42:00,28.6,16.5,30.27,SSE,153,1.0,1.0,60,0.00,,---,0.00,VWS V14.00,2013-03-26 14:42:00,
2013-03-26 08:47:00,29.4,16.9,30.27,SSE,168,0.0,1.0,59,0.00,,---,0.00,VWS V14.00,2013-03-26 14:47:00,
2013-03-26 08:52:00,30.5,17.9,30.26,South,169,0.0,0.0,59,0.00,,---,0.00,VWS V14.00,2013-03-26 14:52:00,
2013-03-26 08:58:00,31.5,17.6,30.25,South,169,0.0,1.0,56,0.00,,---,0.01,VWS V14.00,2013-03-26 14:58:00,
2013-03-26 09:04:00,32.1,17.8,30.26,South,170,1.0,2.0,55,0.00,,---,0.01,VWS V14.00,2013-03-26 15:04:00,
2013-03-26 09:09:00,32.6,16.9,30.25,SW,223,1.0,1.0,52,0.00,,---,0.01,VWS V14.00,2013-03-26 15:09:00,
2013-03-26 09:14:00,33.4,17.7,30.24,SSW,202,0.0,1.0,52,0.00,,---,0.01,VWS V14.00,2013-03-26 15:14:00,
2013-03-26 09:19:00,33.6,16.5,30.25,WSW,252,0.0,6.0,49,0.00,,---,0.01,VWS V14.00,2013-03-26 15:19:00,
2013-03-26 09:24:00,33.7,17.0,30.24,South,171,1.0,5.0,50,0.00,,---,0.01,VWS V14.00,2013-03-26 15:24:00,
2013-03-26 09:29:00,34.2,16.6,30.24,SW,217,6.0,7.0,48,0.00,,---,0.01,VWS V14.00,2013-03-26 15:29:00,
2013-03-26 09:34:00,35.0,16.8,30.23,South,189,2.0,5.0,47,0.00,,---,0.01,VWS V14.00,2013-03-26 15:34:00,
2013-03-26 09:39:00,35.4,16.7,30.22,SSW,211,1.0,5.0,46,0.00,,---,0.01,VWS V14.00,2013-03-26 15:39:00,
2013-03-26 09:44:00,36.0,16.7,30.22,WSW,247,1.0,1.0,45,0.00,,---,0.01,VWS V14.00,2013-03-26 15:44:00,
2013-03-26 09:49:00,36.6,16.8,30.21,South,177,2.0,3.0,44,0.00,,---,0.01,VWS V14.00,2013-03-26 15:49:00,
2013-03-26 09:54:00,36.9,16.5,30.21,SSW,196,4.0,4.0,43,0.00,,---,0.01,VWS V14.00,2013-03-26 15:54:00,
2013-03-26 09:59:00,37.3,16.9,30.20,South,186,1.0,4.0,43,0.00,,---,0.01,VWS V14.00,2013-03-26 15:59:00,
2013-03-26 10:04:00,37.7,17.2,30.21,SSW,196,0.0,4.0,43,0.00,,---,0.01,VWS V14.00,2013-03-26 16:04:00,
2013-03-26 10:09:00,38.4,17.9,30.20,SSW,211,0.0,0.0,43,0.00,,---,0.01,VWS V14.00,2013-03-26 16:09:00,
2013-03-26 10:14:00,39.2,17.5,30.20,SW,229,4.0,6.0,41,0.00,,---,0.01,VWS V14.00,2013-03-26 16:14:00,
2013-03-26 10:19:00,39.9,18.1,30.19,SSE,164,1.0,7.0,41,0.00,,---,0.01,VWS V14.00,2013-03-26 16:19:00,
2013-03-26 10:24:00,40.4,18.6,30.18,SSW,195,1.0,4.0,41,0.00,,---,0.01,VWS V14.00,2013-03-26 16:24:00,
2013-03-26 10:29:00,40.6,18.2,30.18,SSW,197,4.0,5.0,40,0.00,,---,0.01,VWS V14.00,2013-03-26 16:29:00,
2013-03-26 10:34:00,41.0,19.1,30.18,SSW,202,1.0,3.0,41,0.00,,---,0.01,VWS V14.00,2013-03-26 16:34:00,
2013-03-26 10:39:00,41.4,19.5,30.17,SSW,202,1.0,3.0,41,0.00,,---,0.01,VWS V14.00,2013-03-26 16:39:00,
2013-03-26 10:44:00,41.9,19.4,30.16,SSW,198,3.0,3.0,40,0.00,,---,0.01,VWS V14.00,2013-03-26 16:44:00,
2013-03-26 10:49:00,42.3,20.3,30.16,SSE,158,1.0,2.0,41,0.00,,---,0.01,VWS V14.00,2013-03-26 16:49:00,
2013-03-26 10:54:00,42.6,20.0,30.15,South,190,1.0,3.0,40,0.00,,---,0.01,VWS V14.00,2013-03-26 16:54:00,
2013-03-26 10:59:00,43.1,19.2,30.15,South,190,4.0,6.0,38,0.00,,---,0.01,VWS V14.00,2013-03-26 16:59:00,
2013-03-26 11:04:00,43.4,19.5,30.15,SSW,206,0.0,10.0,38,0.00,,---,0.01,VWS V14.00,2013-03-26 17:04:00,
2013-03-26 11:09:00,43.8,20.5,30.15,SSW,201,1.0,4.0,39,0.00,,---,0.01,VWS V14.00,2013-03-26 17:09:00,
2013-03-26 11:14:00,44.2,20.2,30.15,South,188,1.0,1.0,38,0.00,,---,0.01,VWS V14.00,2013-03-26 17:14:00,
2013-03-26 11:19:00,44.6,20.6,30.13,SSW,210,0.0,5.0,38,0.00,,---,0.01,VWS V14.00,2013-03-26 17:19:00,
2013-03-26 11:24:00,44.8,20.1,30.13,SW,224,6.0,6.0,37,0.00,,---,0.01,VWS V14.00,2013-03-26 17:24:00,
2013-03-26 11:29:00,45.1,20.4,30.12,SSW,207,6.0,6.0,37,0.00,,---,0.01,VWS V14.00,2013-03-26 17:29:00,
2013-03-26 11:34:00,45.5,20.8,30.12,SSW,199,1.0,1.0,37,0.00,,---,0.01,VWS V14.00,2013-03-26 17:34:00,
2013-03-26 11:39:00,46.1,20.6,30.12,SW,218,0.0,4.0,36,0.00,,---,0.01,VWS V14.00,2013-03-26 17:39:00,
2013-03-26 11:44:00,46.7,21.2,30.10,SW,218,0.0,3.0,36,0.00,,---,0.01,VWS V14.00,2013-03-26 17:44:00,
2013-03-26 11:49:00,47.0,20.8,30.10,SW,232,1.0,4.0,35,0.00,,---,0.01,VWS V14.00,2013-03-26 17:49:00,
2013-03-26 11:54:00,47.0,22.1,30.10,SSW,200,2.0,2.0,37,0.00,,---,0.01,VWS V14.00,2013-03-26 17:54:00,
2013-03-26 11:59:00,47.1,22.2,30.10,SSW,200,0.0,1.0,37,0.00,,---,0.01,VWS V14.00,2013-03-26 17:59:00,
2013-03-26 12:04:00,47.4,21.1,30.11,SW,225,0.0,1.0,35,0.00,,---,0.01,VWS V14.00,2013-03-26 18:04:00,
2013-03-26 12:09:00,48.0,21.0,30.10,South,175,0.0,5.0,34,0.00,,---,0.01,VWS V14.00,2013-03-26 18:09:00,
2013-03-26 12:14:00,48.5,20.7,30.09,South,190,0.0,3.0,33,0.00,,---,0.01,VWS V14.00,2013-03-26 18:14:00,
2013-03-26 12:19:00,48.7,21.6,30.09,SSW,205,0.0,1.0,34,0.00,,---,0.01,VWS V14.00,2013-03-26 18:19:00,
2013-03-26 12:24:00,48.7,21.6,30.08,SSW,209,0.0,2.0,34,0.00,,---,0.01,VWS V14.00,2013-03-26 18:24:00,
2013-03-26 12:29:00,49.2,22.0,30.08,SSW,211,0.0,2.0,34,0.00,,---,0.01,VWS V14.00,2013-03-26 18:29:00,
2013-03-26 12:34:00,50.1,21.4,30.07,SSW,213,0.0,2.0,32,0.00,,---,0.01,VWS V14.00,2013-03-26 18:34:00,
2013-03-26 12:39:00,50.1,22.1,30.07,SSW,213,1.0,1.0,33,0.00,,---,0.01,VWS V14.00,2013-03-26 18:39:00,
2013-03-26 12:44:00,50.1,22.8,30.06,SSE,165,0.0,2.0,34,0.00,,---,0.01,VWS V14.00,2013-03-26 18:44:00,
2013-03-26 12:49:00,49.9,22.7,30.06,SSE,165,0.0,1.0,34,0.00,,---,0.01,VWS V14.00,2013-03-26 18:49:00,
2013-03-26 12:54:00,50.5,24.6,30.06,SSE,163,1.0,4.0,36,0.00,,---,0.01,VWS V14.00,2013-03-26 18:54:00,
2013-03-26 12:59:00,50.3,23.0,30.06,SSE,163,0.0,2.0,34,0.00,,---,0.01,VWS V14.00,2013-03-26 18:59:00,
2013-03-26 13:04:00,50.6,23.3,30.07,SSE,161,2.0,2.0,34,0.00,,---,0.01,VWS V14.00,2013-03-26 19:04:00,
2013-03-26 13:09:00,50.7,24.7,30.07,SSE,160,0.0,2.0,36,0.00,,---,0.01,VWS V14.00,2013-03-26 19:09:00,
2013-03-26 13:14:00,51.0,24.3,30.06,SSE,157,0.0,2.0,35,0.00,,---,0.01,VWS V14.00,2013-03-26 19:14:00,
2013-03-26 13:19:00,50.8,24.1,30.06,SSE,157,1.0,2.0,35,0.00,,---,0.01,VWS V14.00,2013-03-26 19:19:00,
2013-03-26 13:24:00,51.0,23.6,30.06,SSE,152,0.0,2.0,34,0.00,,---,0.01,VWS V14.00,2013-03-26 19:24:00,
2013-03-26 13:30:00,51.7,24.3,30.05,East,98,0.0,4.0,34,0.00,,---,0.01,VWS V14.00,2013-03-26 19:30:00,
2013-03-26 13:35:00,52.0,24.5,30.05,SE,136,0.0,3.0,34,0.00,,---,0.01,VWS V14.00,2013-03-26 19:35:00,
2013-03-26 13:40:00,51.7,22.8,30.04,SE,145,0.0,2.0,32,0.00,,---,0.01,VWS V14.00,2013-03-26 19:40:00,
2013-03-26 13:45:00,51.3,23.9,30.05,ESE,111,0.0,2.0,34,0.00,,---,0.01,VWS V14.00,2013-03-26 19:45:00,
2013-03-26 13:50:00,52.4,24.9,30.04,ESE,119,0.0,3.0,34,0.00,,---,0.01,VWS V14.00,2013-03-26 19:50:00,
2013-03-26 13:56:00,52.5,24.2,30.04,ESE,106,0.0,3.0,33,0.00,,---,0.01,VWS V14.00,2013-03-26 19:56:00,
2013-03-26 14:02:00,52.6,23.6,30.04,ESE,106,0.0,0.0,32,0.00,,---,0.01,VWS V14.00,2013-03-26 20:02:00,
2013-03-26 14:08:00,53.8,23.9,30.03,NNE,30,0.0,4.0,31,0.00,,---,0.01,VWS V14.00,2013-03-26 20:08:00,
2013-03-26 14:13:00,53.5,22.9,30.04,NNE,25,0.0,1.0,30,0.00,,---,0.01,VWS V14.00,2013-03-26 20:13:00,
2013-03-26 14:19:00,53.1,25.5,30.04,NNE,25,0.0,1.0,34,0.00,,---,0.01,VWS V14.00,2013-03-26 20:19:00,
2013-03-26 14:24:00,53.8,26.1,30.02,ESE,119,0.0,2.0,34,0.00,,---,0.01,VWS V14.00,2013-03-26 20:24:00,
2013-03-26 14:29:00,53.7,23.8,30.02,ESE,115,0.0,2.0,31,0.00,,---,0.01,VWS V14.00,2013-03-26 20:29:00,
2013-03-26 14:34:00,53.3,25.0,30.04,ESE,115,1.0,1.0,33,0.00,,---,0.01,VWS V14.00,2013-03-26 20:34:00,
2013-03-26 14:39:00,53.9,25.5,30.02,SE,125,0.0,2.0,33,0.00,,---,0.01,VWS V14.00,2013-03-26 20:39:00,
2013-03-26 14:44:00,54.4,25.2,30.02,ESE,119,1.0,1.0,32,0.00,,---,0.01,VWS V14.00,2013-03-26 20:44:00,
2013-03-26 14:49:00,54.6,27.5,30.02,ESE,123,0.0,2.0,35,0.00,,---,0.01,VWS V14.00,2013-03-26 20:49:00,
2013-03-26 14:54:00,54.4,27.3,30.02,ESE,122,1.0,1.0,35,0.00,,---,0.01,VWS V14.00,2013-03-26 20:54:00,
2013-03-26 14:59:00,53.5,24.4,30.01,ENE,71,3.0,3.0,32,0.00,,---,0.01,VWS V14.00,2013-03-26 20:59:00,
2013-03-26 15:04:00,52.3,29.9,30.02,North,355,0.0,3.0,42,0.00,,---,0.01,VWS V14.00,2013-03-26 21:04:00,
2013-03-26 15:09:00,51.5,30.9,30.02,North,355,0.0,0.0,45,0.00,,---,0.01,VWS V14.00,2013-03-26 21:09:00,
2013-03-26 15:14:00,51.0,32.0,30.04,NE,36,0.0,5.0,48,0.00,,---,0.01,VWS V14.00,2013-03-26 21:14:00,
2013-03-26 15:19:00,50.5,31.0,30.04,NNE,33,0.0,0.0,47,0.00,,---,0.01,VWS V14.00,2013-03-26 21:19:00,
2013-03-26 15:24:00,50.3,32.4,30.04,NNE,12,1.0,5.0,50,0.00,,---,0.01,VWS V14.00,2013-03-26 21:24:00,
2013-03-26 15:29:00,49.4,31.6,30.05,NNE,33,1.0,5.0,50,0.00,,---,0.01,VWS V14.00,2013-03-26 21:29:00,
2013-03-26 15:34:00,49.1,31.8,30.05,NNE,12,1.0,3.0,51,0.00,,---,0.01,VWS V14.00,2013-03-26 21:34:00,
2013-03-26 15:39:00,49.2,32.8,30.04,NE,38,1.0,2.0,53,0.00,,---,0.01,VWS V14.00,2013-03-26 21:39:00,
2013-03-26 15:44:00,49.1,31.3,30.04,NNW,345,3.0,6.0,50,0.00,,---,0.01,VWS V14.00,2013-03-26 21:44:00,
2013-03-26 15:49:00,49.0,31.7,30.04,NNW,345,0.0,2.0,51,0.00,,---,0.01,VWS V14.00,2013-03-26 21:49:00,
2013-03-26 15:54:00,48.4,31.6,30.04,NNE,32,1.0,3.0,52,0.00,,---,0.01,VWS V14.00,2013-03-26 21:54:00,
2013-03-26 16:00:00,48.0,31.7,30.04,NNE,32,1.0,3.0,53,0.00,,---,0.01,VWS V14.00,2013-03-26 22:00:00,
2013-03-26 16:05:00,47.9,32.1,30.04,NNE,32,0.0,1.0,54,0.00,,---,0.01,VWS V14.00,2013-03-26 22:05:00,
2013-03-26 16:11:00,47.4,32.1,30.04,NNE,20,4.0,5.0,55,0.00,,---,0.01,VWS V14.00,2013-03-26 22:11:00,
2013-03-26 16:16:00,46.9,31.6,30.05,NNE,20,2.0,3.0,55,0.00,,---,0.01,VWS V14.00,2013-03-26 22:16:00,
2013-03-26 16:21:00,47.4,32.1,30.05,NNE,17,3.0,6.0,55,0.00,,---,0.01,VWS V14.00,2013-03-26 22:21:00,
2013-03-26 16:26:00,46.6,31.8,30.06,NNE,24,0.0,3.0,56,0.00,,---,0.01,VWS V14.00,2013-03-26 22:26:00,
2013-03-26 16:31:00,46.0,32.1,30.06,NNE,26,1.0,6.0,58,0.00,,---,0.01,VWS V14.00,2013-03-26 22:31:00,
2013-03-26 16:37:00,45.7,31.8,30.06,NNE,33,0.0,1.0,58,0.00,,---,0.01,VWS V14.00,2013-03-26 22:37:00,
2013-03-26 16:42:00,46.5,32.5,30.05,NNE,33,0.0,2.0,58,0.00,,---,0.01,VWS V14.00,2013-03-26 22:42:00,
2013-03-26 16:47:00,46.8,32.0,30.05,North,360,2.0,5.0,56,0.00,,---,0.01,VWS V14.00,2013-03-26 22:47:00,
2013-03-26 16:52:00,46.5,32.1,30.05,NNE,27,2.0,4.0,57,0.00,,---,0.01,VWS V14.00,2013-03-26 22:52:00,
2013-03-26 16:58:00,46.8,33.2,30.05,NNE,27,2.0,2.0,59,0.00,,---,0.01,VWS V14.00,2013-03-26 22:58:00,
2013-03-26 17:04:00,46.3,32.3,30.05,NNE,15,2.0,5.0,58,0.00,,---,0.01,VWS V14.00,2013-03-26 23:04:00,
2013-03-26 17:09:00,46.0,32.1,30.06,North,5,2.0,6.0,58,0.00,,---,0.01,VWS V14.00,2013-03-26 23:09:00,
2013-03-26 17:14:00,45.8,31.9,30.06,NNE,21,0.0,4.0,58,0.00,,---,0.01,VWS V14.00,2013-03-26 23:14:00,
2013-03-26 17:19:00,45.4,31.5,30.06,NNE,17,0.0,5.0,58,0.00,,---,0.01,VWS V14.00,2013-03-26 23:19:00,
2013-03-26 17:24:00,45.0,32.0,30.07,ENE,61,2.0,2.0,60,0.00,,---,0.01,VWS V14.00,2013-03-26 23:24:00,
2013-03-26 17:29:00,45.0,32.0,30.07,NE,49,0.0,1.0,60,0.00,,---,0.01,VWS V14.00,2013-03-26 23:29:00,
2013-03-26 17:34:00,44.3,31.3,30.08,North,355,3.0,4.0,60,0.00,,---,0.01,VWS V14.00,2013-03-26 23:34:00,
2013-03-26 17:40:00,43.6,31.0,30.08,NNE,24,3.0,3.0,61,0.00,,---,0.01,VWS V14.00,2013-03-26 23:40:00,
2013-03-26 17:45:00,43.1,30.2,30.09,NNE,28,2.0,3.0,60,0.00,,---,0.01,VWS V14.00,2013-03-26 23:45:00,
2013-03-26 17:50:00,42.4,29.5,30.10,North,9,2.0,5.0,60,0.00,,---,0.01,VWS V14.00,2013-03-26 23:50:00,
2013-03-26 17:56:00,42.0,29.5,30.10,NNE,25,6.0,6.0,61,0.00,,---,0.01,VWS V14.00,2013-03-26 23:56:00,
2013-03-26 18:02:00,41.8,29.8,30.10,NE,44,2.0,3.0,62,0.00,,---,0.01,VWS V14.00,2013-03-27 00:02:00,
2013-03-26 18:08:00,41.2,29.2,30.12,NNW,342,1.0,5.0,62,0.00,,---,0.01,VWS V14.00,2013-03-27 00:08:00,
2013-03-26 18:13:00,40.7,28.7,30.12,NNE,23,2.0,4.0,62,0.00,,---,0.01,VWS V14.00,2013-03-27 00:13:00,
2013-03-26 18:18:00,40.4,28.8,30.12,NNE,33,4.0,6.0,63,0.00,,---,0.01,VWS V14.00,2013-03-27 00:18:00,
2013-03-26 18:23:00,39.8,28.6,30.12,North,355,1.0,4.0,64,0.00,,---,0.01,VWS V14.00,2013-03-27 00:23:00,
2013-03-26 18:28:00,39.6,28.8,30.12,NNE,15,0.0,7.0,65,0.00,,---,0.01,VWS V14.00,2013-03-27 00:28:00,
2013-03-26 18:33:00,39.5,28.7,30.12,NNE,17,1.0,3.0,65,0.00,,---,0.01,VWS V14.00,2013-03-27 00:33:00,
2013-03-26 18:39:00,39.4,28.6,30.14,NNE,14,5.0,5.0,65,0.00,,---,0.01,VWS V14.00,2013-03-27 00:39:00,
2013-03-26 18:44:00,39.2,28.4,30.15,ENE,60,2.0,2.0,65,0.00,,---,0.01,VWS V14.00,2013-03-27 00:44:00,
2013-03-26 18:49:00,38.9,28.1,30.15,NNE,15,4.0,4.0,65,0.00,,---,0.01,VWS V14.00,2013-03-27 00:49:00,
2013-03-26 18:55:00,38.6,28.2,30.16,North,355,7.0,7.0,66,0.00,,---,0.01,VWS V14.00,2013-03-27 00:55:00,
2013-03-26 19:00:00,38.1,27.8,30.16,North,349,0.0,6.0,66,0.00,,---,0.01,VWS V14.00,2013-03-27 01:00:00,
2013-03-26 19:05:00,37.7,27.8,30.12,NNW,341,2.0,5.0,67,0.00,,---,0.01,VWS V14.00,2013-03-27 01:05:00,
2013-03-26 19:10:00,37.3,27.4,30.13,NE,35,0.0,2.0,67,0.00,,---,0.01,VWS V14.00,2013-03-27 01:10:00,
2013-03-26 19:15:00,37.1,27.2,30.13,NNE,26,0.0,2.0,67,0.00,,---,0.01,VWS V14.00,2013-03-27 01:15:00,
2013-03-26 19:20:00,37.0,27.4,30.13,NNE,25,5.0,5.0,68,0.00,,---,0.01,VWS V14.00,2013-03-27 01:20:00,
2013-03-26 19:25:00,36.8,27.2,30.13,NNE,25,1.0,2.0,68,0.00,,---,0.01,VWS V14.00,2013-03-27 01:25:00,
2013-03-26 19:30:00,36.6,27.0,30.13,NNE,25,0.0,2.0,68,0.00,,---,0.01,VWS V14.00,2013-03-27 01:30:00,
2013-03-26 19:35:00,36.6,27.0,30.14,NNE,25,0.0,1.0,68,0.00,,---,0.01,VWS V14.00,2013-03-27 01:35:00,
2013-03-26 19:40:00,36.6,27.0,30.13,NNE,25,0.0,0.0,68,0.00,,---,0.01,VWS V14.00,2013-03-27 01:40:00,
2013-03-26 19:45:00,36.6,27.4,30.13,NNE,25,0.0,0.0,69,0.00,,---,0.01,VWS V14.00,2013-03-27 01:45:00,
2013-03-26 19:50:00,36.5,27.3,30.13,NNE,25,0.0,1.0,69,0.00,,---,0.01,VWS V14.00,2013-03-27 01:50:00,
2013-03-26 19:57:00,36.6,27.0,30.14,NNE,25,0.0,0.0,68,0.00,,---,0.01,VWS V14.00,2013-03-27 01:57:00,
2013-03-26 20:02:00,36.5,27.0,30.15,NNE,25,1.0,1.0,68,0.00,,---,0.01,VWS V14.00,2013-03-27 02:02:00,
2013-03-26 20:08:00,36.5,27.3,30.11,NNE,24,0.0,3.0,69,0.00,,---,0.01,VWS V14.00,2013-03-27 02:08:00,
2013-03-26 20:13:00,36.5,27.3,30.11,NNE,24,2.0,2.0,69,0.00,,---,0.01,VWS V14.00,2013-03-27 02:13:00,
2013-03-26 20:18:00,36.4,27.2,30.11,NNE,24,0.0,1.0,69,0.00,,---,0.01,VWS V14.00,2013-03-27 02:18:00,
2013-03-26 20:23:00,36.0,27.2,30.11,NNE,24,0.0,1.0,70,0.00,,---,0.01,VWS V14.00,2013-03-27 02:23:00,
2013-03-26 20:28:00,35.7,27.2,30.11,NNE,24,0.0,0.0,71,0.00,,---,0.01,VWS V14.00,2013-03-27 02:28:00,
2013-03-26 20:33:00,35.5,27.0,30.11,NNE,24,0.0,0.0,71,0.00,,---,0.01,VWS V14.00,2013-03-27 02:33:00,
2013-03-26 20:38:00,35.3,27.2,30.14,NNE,24,0.0,1.0,72,0.00,,---,0.01,VWS V14.00,2013-03-27 02:38:00,
2013-03-26 20:43:00,35.2,27.1,30.14,NNE,24,0.0,0.0,72,0.00,,---,0.01,VWS V14.00,2013-03-27 02:43:00,
2013-03-26 20:48:00,35.0,26.9,30.15,NNE,24,0.0,0.0,72,0.00,,---,0.01,VWS V14.00,2013-03-27 02:48:00,
2013-03-26 20:53:00,34.8,26.7,30.16,NNE,24,0.0,0.0,72,0.00,,---,0.01,VWS V14.00,2013-03-27 02:53:00,
2013-03-26 20:58:00,34.5,26.4,30.16,NNE,24,0.0,0.0,72,0.00,,---,0.01,VWS V14.00,2013-03-27 02:58:00,
2013-03-26 21:03:00,34.4,26.7,30.16,NNE,24,0.0,0.0,73,0.00,,---,0.01,VWS V14.00,2013-03-27 03:03:00,
2013-03-26 21:08:00,34.4,26.7,30.12,NNE,24,0.0,0.0,73,0.00,,---,0.01,VWS V14.00,2013-03-27 03:08:00,
2013-03-26 21:13:00,34.1,26.4,30.12,NNE,24,0.0,0.0,73,0.00,,---,0.01,VWS V14.00,2013-03-27 03:13:00,
2013-03-26 21:18:00,34.0,26.3,30.13,NNE,24,0.0,0.0,73,0.00,,---,0.01,VWS V14.00,2013-03-27 03:18:00,
2013-03-26 21:23:00,33.9,26.5,30.14,NNE,24,0.0,0.0,74,0.00,,---,0.01,VWS V14.00,2013-03-27 03:23:00,
2013-03-26 21:28:00,33.7,26.3,30.14,NNE,24,0.0,0.0,74,0.00,,---,0.01,VWS V14.00,2013-03-27 03:28:00,
2013-03-26 21:33:00,33.4,26.3,30.14,NNE,24,0.0,0.0,75,0.00,,---,0.01,VWS V14.00,2013-03-27 03:33:00,
2013-03-26 21:38:00,33.5,26.4,30.14,NNE,24,0.0,1.0,75,0.00,,---,0.01,VWS V14.00,2013-03-27 03:38:00,
2013-03-26 21:43:00,33.7,26.6,30.14,NNE,24,0.0,0.0,75,0.00,,---,0.01,VWS V14.00,2013-03-27 03:43:00,
2013-03-26 21:48:00,33.8,26.7,30.13,NNE,24,0.0,1.0,75,0.00,,---,0.01,VWS V14.00,2013-03-27 03:48:00,
2013-03-26 21:53:00,33.8,26.4,30.14,NNE,24,0.0,0.0,74,0.00,,---,0.01,VWS V14.00,2013-03-27 03:53:00,
2013-03-26 21:59:00,33.9,26.5,30.14,NNE,24,0.0,0.0,74,0.00,,---,0.01,VWS V14.00,2013-03-27 03:59:00,
2013-03-26 22:00:00,33.9,26.5,30.14,NNE,24,0.0,2.0,74,0.00,,---,0.01,VWS V14.00,2013-03-27 04:00:00,
2013-03-26 22:02:00,33.9,26.2,30.13,NNE,24,0.0,0.0,73,0.00,,---,0.01,VWS V14.00,2013-03-27 04:02:00,
2013-03-26 22:03:00,33.9,26.2,30.13,NNE,24,0.0,0.0,73,0.00,,---,0.01,VWS V14.00,2013-03-27 04:03:00,
2013-03-26 22:06:00,33.9,26.2,30.11,NNE,24,0.0,1.0,73,0.00,,---,0.01,VWS V14.00,2013-03-27 04:06:00,
2013-03-26 22:12:00,33.8,26.1,30.12,NNE,24,0.0,0.0,73,0.00,,---,0.01,VWS V14.00,2013-03-27 04:12:00,
2013-03-26 22:17:00,33.8,26.1,30.12,NNE,24,0.0,0.0,73,0.00,,---,0.01,VWS V14.00,2013-03-27 04:17:00,
2013-03-26 22:22:00,33.6,25.9,30.12,NNE,24,0.0,0.0,73,0.00,,---,0.01,VWS V14.00,2013-03-27 04:22:00,
2013-03-26 22:28:00,33.4,25.7,30.12,NNE,24,0.0,0.0,73,0.00,,---,0.01,VWS V14.00,2013-03-27 04:28:00,
2013-03-26 22:33:00,33.2,25.5,30.12,NNE,24,0.0,0.0,73,0.00,,---,0.01,VWS V14.00,2013-03-27 04:33:00,
2013-03-26 22:38:00,33.1,25.7,30.12,NNE,24,0.0,0.0,74,0.00,,---,0.01,VWS V14.00,2013-03-27 04:38:00,
2013-03-26 22:43:00,32.9,25.5,30.12,NNE,24,0.0,0.0,74,0.00,,---,0.01,VWS V14.00,2013-03-27 04:43:00,
2013-03-26 22:48:00,32.8,25.4,30.12,NNE,24,0.0,0.0,74,0.00,,---,0.01,VWS V14.00,2013-03-27 04:48:00,
2013-03-26 22:53:00,32.7,25.3,30.12,NNE,24,0.0,0.0,74,0.00,,---,0.01,VWS V14.00,2013-03-27 04:53:00,
2013-03-26 22:58:00,32.6,25.2,30.12,NNE,24,0.0,0.0,74,0.00,,---,0.01,VWS V14.00,2013-03-27 04:58:00,
2013-03-26 23:03:00,32.5,25.1,30.12,NNE,24,0.0,0.0,74,0.00,,---,0.01,VWS V14.00,2013-03-27 05:03:00,
2013-03-26 23:08:00,32.5,25.1,30.09,NNE,24,0.0,0.0,74,0.00,,---,0.01,VWS V14.00,2013-03-27 05:08:00,
2013-03-26 23:13:00,32.4,25.0,30.11,NNE,24,0.0,0.0,74,0.00,,---,0.01,VWS V14.00,2013-03-27 05:13:00,
2013-03-26 23:18:00,32.3,25.0,30.11,NNE,24,0.0,0.0,74,0.00,,---,0.01,VWS V14.00,2013-03-27 05:18:00,
2013-03-26 23:23:00,32.2,24.9,30.11,NNE,24,0.0,0.0,74,0.00,,---,0.01,VWS V14.00,2013-03-27 05:23:00,
2013-03-26 23:28:00,32.1,24.8,30.11,NNE,24,0.0,0.0,74,0.00,,---,0.01,VWS V14.00,2013-03-27 05:28:00,
2013-03-26 23:33:00,32.0,25.0,30.11,NNE,24,0.0,0.0,75,0.00,,---,0.01,VWS V14.00,2013-03-27 05:33:00,
2013-03-26 23:38:00,31.9,24.9,30.12,NNE,24,0.0,0.0,75,0.00,,---,0.01,VWS V14.00,2013-03-27 05:38:00,
2013-03-26 23:43:00,31.8,24.8,30.12,NNE,24,0.0,0.0,75,0.00,,---,0.01,VWS V14.00,2013-03-27 05:43:00,
2013-03-26 23:48:00,31.7,24.7,30.12,NNE,24,0.0,0.0,75,0.00,,---,0.01,VWS V14.00,2013-03-27 05:48:00,
2013-03-26 23:53:00,31.6,24.6,30.12,NNE,24,0.0,0.0,75,0.00,,---,0.01,VWS V14.00,2013-03-27 05:53:00,
2013-03-26 23:58:00,31.5,24.5,30.12,NNE,24,0.0,0.0,75,0.00,,---,0.01,VWS V14.00,2013-03-27 05:58:00,